Location: Alexandria
(38.8050°N, 77.0470°W)
Time: 21:47:32
(UTC-05:00)

Tiangong 2 - Pass Details

Date: 10 November 2017
Orbit: 386 x 391 km, 42.8° (Epoch: 17 November)

Event Time Altitude Azimuth Distance (km) Brightness Sun altitude
Rises 18:34:32 0° 289° (WNW) 2,274 6.1 -18.9°
Reaches altitude 10° 18:36:38 10° 287° (WNW) 1,416 4.9 -19.3°
Maximum altitude 18:39:47 65° 205° (SSW) 428 1.3 -19.9°
Enters shadow 18:39:52 65° 194° (SSW) 430 1.3 -19.9°
